[[{"header":{"parameterUnit":"m.s-1","parameterCategory":1,"la1":30.2991,"la2":30.254,"lo1":-89.0895,"lo2":-89.0444,"dy":0.0017,"dx":0.0017,"nx":28,"ny":28,"refTime":"2024-06-11T09:00:00:Z","depth":0,"parameterNumber":2,"parameterNumberName":"U-component_of_WINDS"},"data":[0,0,0,0,0,0,0,0,0,0,0,0,0,0,0,0,0,0,0,0,0,0,0,0,0,0,0,0,0,0,0,0,0,0,0,0,0,0,0,0,0,0,0,0,0,0,0,0,0,0,0,0,0,0,0,0,0,0,-1.4673,-1.4674,0,-1.4795,-1.4796,-1.4798,-1.4832,-1.4832,-1.4831,-1.483,-1.4955,-1.4959,-1.4963,0,0,0,0,0,0,0,0,0,0,0,0,0,-1.4468,-1.4471,-1.4673,-1.4674,-1.4676,-1.4795,-1.4796,-1.4798,-1.4833,-1.4832,-1.4831,-1.483,-1.4954,-1.4959,-1.4963,0,0,0,0,0,0,0,0,0,0,0,0,0,-1.457,-1.4473,-1.4672,-1.4707,-1.4712,-1.4794,-1.4796,-1.4799,-1.4833,-1.4832,-1.4831,-1.483,-1.4952,-1.4958,-1.4964,-1.5021,0,0,-1.4982,-1.4985,0,0,0,0,0,0,0,0,-1.4564,-1.4578,-1.4701,-1.4705,-1.471,-1.4797,-1.477,-1.4873,-1.4833,-1.4787,-1.483,-1.4829,-1.4904,-1.4913,-1.4939,-1.5027,-1.5032,-1.4983,-1.4986,-1.4989,-1.499,0,0,0,0,0,0,0,-1.4557,-1.4573,-1.4721,-1.4702,-1.4708,-1.4716,-1.473,-1.479,-1.4849,-1.4791,-1.4793,-1.4808,-1.4906,-1.4933,-1.4942,-1.5034,-1.4982,-1.4988,-1.4991,-1.4994,-1.5173,-1.5175,0,0,0,0,0,0,-1.4544,-1.4566,-1.4717,-1.4725,-1.4633,-1.4721,-1.4736,-1.477,-1.4849,-1.486,-1.4808,-1.4809,-1.4923,-1.4935,-1.4946,-1.5017,-1.4989,-1.4994,-1.4998,-1.5172,-1.5174,-1.5175,0,0,0,0,0,0,-1.454,-1.4557,-1.4712,-1.4646,-1.4667,-1.4726,-1.4764,-1.4773,-1.48,-1.4862,-1.4873,-1.4825,-1.4923,-1.4938,-1.5002,-1.5022,-1.4997,-1.5002,-1.5171,-1.5173,-1.5174,-1.516,0,0,0,0,0,0,-1.4534,-1.4555,-1.4578,-1.4647,-1.467,-1.4766,-1.4765,-1.4776,-1.481,-1.4812,-1.488,-1.4891,-1.4923,-1.4993,-1.5008,-1.503,-1.5007,-1.5169,-1.5172,-1.5174,-1.5159,-1.5161,-1.5163,0,0,0,0,0,-1.4526,-1.4569,-1.4579,-1.4597,-1.4699,-1.4767,-1.4781,-1.4817,-1.4812,-1.4835,-1.4874,-1.4889,-1.5017,-1.4999,-1.5016,-1.504,-1.5168,-1.5171,-1.5174,-1.5158,-1.5161,-1.5163,0,0,0,0,0,0,-1.4502,-1.4579,-1.4591,-1.4657,-1.4705,-1.4773,-1.4803,-1.4819,-1.487,-1.4869,-1.4912,-1.4927,-1.4988,-1.5021,-1.4999,-1.5099,-1.5093,-1.5099,-1.5075,-1.5078,-1.508,-1.5071,-1.5012,0,0,0,0,0,-1.4504,-1.4553,-1.4617,-1.467,-1.4693,-1.4744,-1.4775,-1.4799,-1.485,-1.4871,-1.4915,-1.4964,-1.5016,-1.5049,-1.51,-1.5164,-1.5179,-1.5189,-1.5191,-1.5192,-1.5197,-1.5232,-1.5237,-1.5184,-1.5184,-1.5184,0,0,-1.4509,-1.4557,-1.4586,-1.4666,-1.4706,-1.4755,-1.4761,-1.4813,-1.4849,-1.4879,-1.4942,-1.4975,-1.5033,-1.5097,-1.5128,-1.5126,-1.5215,-1.5196,-1.5196,-1.5201,-1.5236,-1.5241,-1.5245,-1.5186,-1.5186,-1.5185,0,0,-1.4544,-1.4585,-1.4633,-1.4673,-1.4734,-1.4767,-1.4778,-1.4843,-1.4867,-1.4931,-1.4954,-1.4998,-1.5086,-1.5126,-1.5158,-1.5206,-1.5221,-1.5221,-1.5232,-1.5266,-1.527,-1.5274,-1.5291,-1.5297,-1.5226,-1.5226,-1.5226,0,-1.4543,-1.4618,-1.4656,-1.4707,-1.4741,-1.4769,-1.4818,-1.4855,-1.4929,-1.4951,-1.4949,-1.506,-1.5101,-1.5174,-1.5185,-1.521,-1.5224,-1.5214,-1.5267,-1.5271,-1.5275,-1.5292,-1.5298,-1.5226,-1.5226,-1.5226,-1.5226,0,-1.4613,-1.4665,-1.4696,-1.4767,-1.4805,-1.4854,-1.4899,-1.4932,-1.4953,-1.4986,-1.505,-1.51,-1.5161,-1.518,-1.5201,-1.5256,-1.5253,-1.5258,-1.5253,-1.5279,-1.5295,-1.5302,-1.5225,-1.5225,-1.5225,-1.5226,0,0,-1.4637,-1.4727,-1.4738,-1.477,-1.4838,-1.4878,-1.4928,-1.4988,-1.5016,-1.5066,-1.5108,-1.5182,-1.5187,-1.5223,-1.5248,-1.5277,-1.5312,-1.5279,-1.5281,-1.5283,-1.5375,-1.5371,-1.5378,-1.5322,-1.5323,-1.5324,-1.537,0,-1.468,-1.4771,-1.4806,-1.488,-1.4927,-1.4954,-1.4998,-1.5044,-1.5076,-1.5121,-1.5156,-1.5207,-1.521,-1.5232,-1.5263,-1.5301,-1.5331,-1.5298,-1.5362,-1.5363,-1.5346,-1.5386,-1.5382,-1.5423,-1.5377,-1.5378,-1.5379,0,-1.4742,-1.4792,-1.4871,-1.4933,-1.4954,-1.4992,-1.5049,-1.5092,-1.5145,-1.5166,-1.5206,-1.5229,-1.5282,-1.5273,-1.5346,-1.5323,-1.5351,-1.5373,-1.5376,-1.5383,-1.5373,-1.5394,-1.5437,-1.5443,-1.5389,-1.5388,-1.5388,0,-1.4751,-1.4838,-1.4896,-1.4923,-1.4996,-1.5022,-1.5054,-1.5106,-1.5139,-1.5189,-1.5211,-1.5266,-1.5296,-1.5338,-1.5375,-1.5365,-1.5444,-1.5439,-1.5463,-1.5462,-1.5478,-1.5477,-1.5526,-1.5497,-1.5496,-1.5496,-1.5496,0,-1.4795,-1.4842,-1.4901,-1.4936,-1.4989,-1.5029,-1.508,-1.5114,-1.5159,-1.5201,-1.5228,-1.5267,-1.5314,-1.5359,-1.5388,-1.5443,-1.5457,-1.5475,-1.5482,-1.5473,-1.547,-1.5492,-1.549,-1.5498,-1.5498,-1.5497,-1.5497,0,-1.4814,-1.4855,-1.492,-1.4984,-1.5001,-1.5037,-1.5092,-1.5127,-1.516,-1.5213,-1.5228,-1.5279,-1.5333,-1.5374,-1.5445,-1.5464,-1.5523,-1.5531,-1.5505,-1.5509,-1.553,-1.5527,-1.5594,-1.5605,-1.5568,-1.5569,-1.5569,0,-1.4839,-1.4876,-1.4944,-1.4974,-1.5005,-1.5054,-1.5088,-1.5128,-1.5162,-1.5224,-1.5252,-1.5307,-1.5354,-1.5439,-1.5483,-1.5536,-1.5545,-1.5565,-1.5554,-1.5542,-1.5545,-1.5542,-1.5546,-1.5566,-1.5567,-1.5567,-1.5567,0,-1.488,-1.4899,-1.4947,-1.5001,-1.5041,-1.5086,-1.5132,-1.5155,-1.5203,-1.524,-1.5295,-1.5332,-1.5403,-1.5458,-1.5516,-1.5548,-1.5565,-1.557,-1.5579,-1.5569,-1.5552,-1.5561,-1.5509,-1.5569,-1.5568,-1.5568,-1.5568,-1.5568,-1.4903,-1.4937,-1.4989,-1.5041,-1.508,-1.5121,-1.5158,-1.5195,-1.5242,-1.5303,-1.5323,-1.538,-1.5431,-1.551,-1.5543,-1.5588,-1.5588,-1.56,-1.5603,-1.5606,-1.5605,-1.5545,-1.5599,-1.5599,-1.5599,-1.5599,-1.5599,0,-1.4945,-1.498,-1.5027,-1.509,-1.5131,-1.5144,-1.5194,-1.5228,-1.5278,-1.5324,-1.5369,-1.5432,-1.5485,-1.5532,-1.5587,-1.5614,-1.5623,-1.5627,-1.5625,-1.5632,-1.5602,-1.5589,-1.5619,-1.5619,-1.5619,-1.5619,-1.5619,-1.5619,-1.4971,-1.5028,-1.5053,-1.5128,-1.5163,-1.5219,-1.5247,-1.5285,-1.5322,-1.5391,-1.5436,-1.5466,-1.5512,-1.5571,-1.562,-1.5632,-1.5651,-1.5653,-1.5667,-1.5637,-1.5635,-1.5632,-1.562,-1.5657,-1.5657,-1.5694,-1.5695,-1.5695]},{"header":{"parameterUnit":"m.s-1","parameterCategory":1,"la1":30.2991,"la2":30.254,"lo1":-89.0895,"lo2":-89.0444,"dy":0.0017,"dx":0.0017,"nx":28,"ny":28,"refTime":"2024-06-11T09:00:00:Z","depth":0,"parameterNumber":3,"parameterNumberName":"V-component_of_WINDS"},"data":[0,0,0,0,0,0,0,0,0,0,0,0,0,0,0,0,0,0,0,0,0,0,0,0,0,0,0,0,0,0,0,0,0,0,0,0,0,0,0,0,0,0,0,0,0,0,0,0,0,0,0,0,0,0,0,0,0,0,-2.8836,-2.8836,0,-2.8887,-2.8888,-2.8888,-2.8882,-2.8881,-2.888,-2.8879,-2.8927,-2.8929,-2.8931,0,0,0,0,0,0,0,0,0,0,0,0,0,-2.8726,-2.8728,-2.8836,-2.8836,-2.8837,-2.8887,-2.8888,-2.8889,-2.8882,-2.8881,-2.888,-2.8879,-2.8927,-2.8929,-2.8932,0,0,0,0,0,0,0,0,0,0,0,0,0,-2.8775,-2.8729,-2.8835,-2.884,-2.884,-2.8887,-2.8888,-2.8889,-2.8882,-2.8881,-2.8879,-2.8878,-2.8926,-2.8929,-2.8932,-2.8976,0,0,-2.8941,-2.8943,0,0,0,0,0,0,0,0,-2.8772,-2.8779,-2.8838,-2.8839,-2.884,-2.8877,-2.8867,-2.8918,-2.8882,-2.8866,-2.8879,-2.8878,-2.8911,-2.8915,-2.8928,-2.8979,-2.8981,-2.8942,-2.8944,-2.8945,-2.8946,0,0,0,0,0,0,0,-2.8769,-2.8777,-2.8856,-2.8839,-2.884,-2.8837,-2.8843,-2.8877,-2.8895,-2.8867,-2.8867,-2.8873,-2.8912,-2.8925,-2.8929,-2.8981,-2.8942,-2.8944,-2.8946,-2.8948,-2.907,-2.9071,0,0,0,0,0,0,-2.8765,-2.8774,-2.8854,-2.8857,-2.8803,-2.884,-2.8847,-2.8866,-2.8895,-2.8898,-2.8874,-2.8873,-2.892,-2.8925,-2.8931,-2.8983,-2.8945,-2.8948,-2.895,-2.9068,-2.907,-2.9071,0,0,0,0,0,0,-2.8763,-2.8772,-2.8852,-2.8816,-2.8826,-2.8844,-2.8866,-2.8868,-2.8881,-2.89,-2.8903,-2.8885,-2.8919,-2.8926,-2.8965,-2.8985,-2.8949,-2.8952,-2.9067,-2.9069,-2.9071,-2.909,0,0,0,0,0,0,-2.876,-2.8772,-2.879,-2.8816,-2.8828,-2.8887,-2.8867,-2.887,-2.8887,-2.8886,-2.8911,-2.8913,-2.8919,-2.896,-2.8968,-2.8989,-2.8954,-2.9065,-2.9068,-2.907,-2.9087,-2.9092,-2.9096,0,0,0,0,0,-2.8756,-2.8792,-2.8791,-2.88,-2.8851,-2.8888,-2.8895,-2.8902,-2.8889,-2.8906,-2.8918,-2.8913,-2.8982,-2.8964,-2.8973,-2.8995,-2.9064,-2.9067,-2.907,-2.9085,-2.9091,-2.9096,0,0,0,0,0,0,-2.8766,-2.8796,-2.8794,-2.8841,-2.8862,-2.8887,-2.891,-2.8908,-2.8932,-2.8929,-2.8936,-2.8941,-2.898,-2.8991,-2.8972,-2.9038,-2.9021,-2.9026,-2.903,-2.9035,-2.904,-2.9036,-2.8957,0,0,0,0,0,-2.8774,-2.8804,-2.8827,-2.8866,-2.8877,-2.8892,-2.8908,-2.8912,-2.8933,-2.8942,-2.8957,-2.8977,-2.9003,-2.902,-2.9045,-2.9089,-2.9094,-2.9108,-2.9113,-2.9116,-2.912,-2.9143,-2.9149,-2.9082,-2.9082,-2.9081,0,0,-2.879,-2.881,-2.8828,-2.8868,-2.8886,-2.8914,-2.8899,-2.893,-2.8951,-2.8946,-2.8984,-2.8995,-2.9018,-2.906,-2.9079,-2.907,-2.914,-2.912,-2.9123,-2.9125,-2.9147,-2.9153,-2.9159,-2.9084,-2.9083,-2.9083,0,0,-2.8834,-2.8853,-2.8887,-2.8904,-2.8931,-2.894,-2.8948,-2.8974,-2.8982,-2.902,-2.9017,-2.9041,-2.9086,-2.9102,-2.9116,-2.9166,-2.9161,-2.9174,-2.9197,-2.9219,-2.9224,-2.9229,-2.9246,-2.9252,-2.9178,-2.9178,-2.9178,0,-2.885,-2.8895,-2.8904,-2.8936,-2.8953,-2.8951,-2.8984,-2.9001,-2.9033,-2.9044,-2.9035,-2.9092,-2.9107,-2.9151,-2.9164,-2.9176,-2.9184,-2.9171,-2.9223,-2.9228,-2.9233,-2.9248,-2.9255,-2.9179,-2.9179,-2.9179,-2.9179,0,-2.8913,-2.8944,-2.8968,-2.9001,-2.9021,-2.9053,-2.9065,-2.9084,-2.9086,-2.9096,-2.9134,-2.9152,-2.9181,-2.9192,-2.9193,-2.9236,-2.923,-2.9222,-2.9204,-2.924,-2.9255,-2.9261,-2.9181,-2.9181,-2.918,-2.918,0,0,-2.8963,-2.9002,-2.901,-2.9025,-2.9054,-2.9078,-2.9109,-2.9138,-2.9154,-2.9176,-2.9202,-2.924,-2.9233,-2.9249,-2.9252,-2.9272,-2.9309,-2.9261,-2.9262,-2.9268,-2.9356,-2.9361,-2.9368,-2.9306,-2.9308,-2.9309,-2.9353,0,-2.9009,-2.9067,-2.9076,-2.9126,-2.9154,-2.9153,-2.918,-2.92,-2.921,-2.9234,-2.9244,-2.9271,-2.926,-2.9269,-2.9289,-2.93,-2.9326,-2.9297,-2.9328,-2.9329,-2.9321,-2.9376,-2.9381,-2.9423,-2.9359,-2.936,-2.9361,0,-2.907,-2.9096,-2.9149,-2.9174,-2.9186,-2.9211,-2.9238,-2.9261,-2.9283,-2.9289,-2.9307,-2.9308,-2.9339,-2.9321,-2.9363,-2.9343,-2.9356,-2.9363,-2.9365,-2.9367,-2.9346,-2.9378,-2.9436,-2.9442,-2.937,-2.937,-2.9369,0,-2.91,-2.9148,-2.9186,-2.9199,-2.9229,-2.9246,-2.9259,-2.9281,-2.9297,-2.9321,-2.9331,-2.9357,-2.9371,-2.9391,-2.9398,-2.9384,-2.9439,-2.9422,-2.9443,-2.9443,-2.9453,-2.9452,-2.9513,-2.9464,-2.9464,-2.9464,-2.9464,0,-2.915,-2.9182,-2.92,-2.9223,-2.9258,-2.9268,-2.9302,-2.9314,-2.9333,-2.9357,-2.9358,-2.938,-2.9389,-2.9412,-2.9418,-2.9451,-2.9458,-2.9462,-2.9463,-2.9461,-2.946,-2.9469,-2.9466,-2.9466,-2.9465,-2.9465,-2.9465,0,-2.9189,-2.9202,-2.9243,-2.9269,-2.9277,-2.9301,-2.9323,-2.9344,-2.9354,-2.9385,-2.9392,-2.9408,-2.9435,-2.9445,-2.9478,-2.9482,-2.9519,-2.9519,-2.9512,-2.9512,-2.9533,-2.953,-2.96,-2.9609,-2.9555,-2.9556,-2.9556,0,-2.9219,-2.9243,-2.9273,-2.929,-2.9304,-2.9331,-2.9349,-2.9358,-2.9376,-2.9403,-2.9421,-2.9449,-2.9471,-2.9515,-2.9528,-2.9553,-2.9552,-2.9574,-2.9555,-2.9552,-2.955,-2.9548,-2.955,-2.9577,-2.9578,-2.9578,-2.9579,0,-2.927,-2.9275,-2.9302,-2.933,-2.9351,-2.9374,-2.9396,-2.9409,-2.9422,-2.9441,-2.947,-2.9488,-2.9522,-2.9549,-2.9575,-2.9586,-2.9584,-2.9585,-2.9591,-2.9589,-2.9584,-2.9585,-2.9521,-2.9583,-2.9583,-2.9582,-2.9582,-2.9582,-2.9304,-2.9326,-2.935,-2.9379,-2.9396,-2.9417,-2.9438,-2.9451,-2.9476,-2.9506,-2.951,-2.954,-2.9561,-2.9595,-2.9608,-2.9631,-2.9624,-2.9634,-2.9636,-2.9637,-2.9638,-2.9582,-2.9636,-2.9636,-2.9636,-2.9635,-2.9635,0,-2.9354,-2.937,-2.9396,-2.9427,-2.945,-2.9448,-2.9472,-2.949,-2.9517,-2.9537,-2.956,-2.9593,-2.9619,-2.9634,-2.966,-2.9675,-2.9674,-2.9681,-2.9679,-2.9682,-2.9643,-2.9635,-2.9681,-2.9681,-2.9681,-2.9681,-2.9681,-2.9681,-2.9383,-2.9419,-2.9428,-2.9472,-2.9487,-2.9518,-2.9532,-2.955,-2.9566,-2.9603,-2.9625,-2.9636,-2.9654,-2.9681,-2.9704,-2.9708,-2.9716,-2.9723,-2.9726,-2.9689,-2.9685,-2.968,-2.9672,-2.9726,-2.9726,-2.9763,-2.9763,-2.9763]}]]